Wind_Speed
24 25 26 26 25 24 24 24 24 24 25 25 25 25 25 25 26 26 25 25 25 25 25 25 25 26 26 26 26 26 26 26 26 26 25 26 26 25 25 25 25 26 26
27 26 26 27 26 26 25 25 26 26 26 26 26 27 27 27 27 27 27 27 27 27 26 27 27 27 27 27 28 28 28 28 27 27 26 26 26 26 27 27 27 27 26
28 28 28 28 28 28 27 28 28 27 27 27 28 27 28 28 28 28 28 28 28 28 28 28 28 27 27 28 28 28 28 28 28 27 27 27 27 27 27 27 28 28 27
28 29 28 28 29 28 29 29 29 29 29 28 28 29 28 28 28 28 28 28 29 29 28 28 27 28 28 28 28 28 28 28 28 28 27 27 28 28 29 29 29 29 29
29 30 29 29 29 29 29 30 30 31 31 30 30 30 29 29 29 30 30 29 30 29 29 29 29 29 30 30 30 30 29 29 29 29 29 29 30 30 30 30 30 30 30
30 30 30 30 30 30 30 30 31 31 30 30 30 30 30 30 30 30 30 30 30 30 30 30 31 31 31 31 31 31 31 31 31 31 31 31 31 31 31 31 30 31 30
31 31 31 31 31 31 31 31 31 30 30 30 30 30 30 31 30 30 30 30 30 30 30 31 32 31 32 31 32 31 32 32 32 33 32 32 32 32 31 31 31 31 31
33 32 32 32 33 32 32 31 31 31 31 30 30 31 31 30 30 30 30 30 30 30 31 31 31 31 31 31 31 32 32 33 33 33 33 33 33 32 32 31 31 31 31
33 33 33 33 33 33 32 32 32 32 32 31 30 30 30 30 30 30 31 31 30 30 31 31 31 31 31 31 31 32 32 33 33 32 32 32 32 32 31 31 30 30 30
34 34 34 34 34 34 33 32 32 32 32 31 31 31 31 31 31 31 31 31 31 31 31 31 31 31 31 31 32 32 31 31 31 31 32 32 31 31 31 31 31 31 30
34 35 36 35 35 34 34 34 33 33 33 33 32 32 32 32 32 32 32 32 32 32 31 31 32 32 31 31 32 32 31 31 31 31 31 31 31 30 30 31 31 31 31
36 36 35 35 35 35 35 35 35 34 34 34 34 33 33 32 32 32 32 32 32 33 33 33 33 32 32 32 32 32 32 31 31 31 31 31 31 30 30 31 31 31 31
36 35 36 36 35 35 35 35 35 35 35 35 34 33 33 33 33 33 33 33 33 34 34 33 33 32 32 33 33 33 32 32 31 31 31 31 31 30 30 30 30 30 30
35 36 36 36 35 36 36 37 36 36 35 35 35 34 34 34 34 34 34 34 34 34 34 34 33 33 33 33 33 33 33 32 32 32 32 32 31 30 30 30 29 28 28
36 36 36 36 36 36 36 36 36 35 35 35 35 35 34 34 33 34 34 34 33 33 33 33 33 33 34 33 33 33 32 32 33 33 32 32 30 29 29 28 27 26 26
36 36 36 36 35 35 35 35 35 35 35 35 36 35 34 34 33 33 33 33 33 33 33 33 33 33 33 33 33 33 33 33 33 32 31 30 30 29 29 28 27 26 25
35 35 35 35 35 34 34 34 34 34 34 35 35 35 34 33 32 32 32 33 33 32 33 33 33 32 32 32 32 32 32 32 31 31 30 29 29 29 28 27 27 26 26
35 35 35 34 34 33 34 33 33 33 33 34 34 34 33 33 33 33 33 33 33 33 32 32 32 31 31 32 32 32 31 30 30 30 29 28 28 27 27 27 27 26 26
34 34 33 33 33 33 33 33 34 34 34 33 33 33 32 33 34 34 34 33 32 32 31 31 31 31 32 31 31 30 30 29 29 29 29 28 27 27 26 26 26 25 25
33 32 32 32 33 33 33 33 34 34 33 32 32 32 32 32 32 32 32 31 31 30 30 30 30 29 29 28 29 29 29 29 28 28 29 28 28 27 26 25 25 24 24
32 32 32 33 33 33 33 33 33 34 33 32 31 31 31 31 32 32 31 31 31 29 29 29 29 29 28 28 29 30 29 28 28 28 28 27 26 25 25 24 23 23 23
32 32 32 32 32 33 33 33 33 33 33 32 32 32 31 31 31 30 31 31 31 30 30 30 30 30 30 29 29 29 28 27 27 26 25 25 24 23 23 22 21 21 20
31 31 32 32 32 32 33 33 33 32 32 32 32 32 31 31 31 30 31 31 31 30 30 29 29 29 29 29 28 27 26 25 25 24 24 23 23 22 21 20 19 19 19
31 31 31 32 32 33 33 33 32 32 32 32 32 32 32 31 31 31 31 30 30 30 30 30 30 29 29 28 27 26 25 25 25 24 23 22 21 19 18 18 18 19 18
31 31 32 32 32 33 33 32 32 32 32 32 32 31 31 31 31 31 30 30 30 30 29 29 29 28 28 27 25 25 24 23 23 23 21 21 20 19 19 18 18 18 18
31 32 32 32 32 33 32 32 32 32 31 31 31 31 31 30 30 29 30 29 30 29 29 28 28 27 26 26 25 24 23 21 21 20 20 19 19 19 19 18 18 18 17
Wind_Direction
302 302 302 303 300 298 299 299 299 299 300 300 300 302 304 304 303 302 301 300 299 299 300 300 300 299 299 298 297 295 295 294 291 290 288 286 284 282 280 279 279 278 278
298 300 300 300 301 299 298 298 298 299 299 299 299 298 299 301 303 301 298 297 297 298 298 298 298 297 297 296 296 294 293 291 290 289 287 286 283 281 281 280 278 277 276
296 295 296 297 299 298 297 296 296 296 297 297 296 296 296 298 300 298 296 296 296 296 296 296 297 296 296 295 294 293 291 290 289 288 286 285 285 284 283 281 280 279 278
295 295 295 295 297 296 296 296 296 296 295 295 295 295 296 297 297 295 294 294 295 296 295 297 296 296 295 294 293 292 290 289 289 288 286 285 285 284 283 281 278 278 277
293 293 293 293 294 294 294 294 294 294 296 293 293 294 294 295 295 294 293 293 295 295 295 296 297 296 295 293 293 291 289 288 288 288 287 285 284 283 282 281 280 278 277
290 291 292 292 293 293 293 294 294 294 295 295 292 293 293 294 294 293 294 294 294 295 295 297 297 297 296 294 293 291 289 288 287 287 286 285 284 284 282 280 280 279 277
290 291 292 293 293 293 293 292 292 293 295 296 293 292 293 293 292 292 294 294 295 296 296 298 299 298 298 297 295 292 290 289 288 286 285 286 284 283 282 281 280 279 277
289 290 292 292 292 292 292 291 290 292 293 294 293 291 292 291 292 293 294 295 296 296 298 300 301 300 300 300 298 295 293 292 290 287 285 285 284 283 282 280 279 278 277
289 288 290 292 293 292 292 291 289 290 292 292 292 292 291 291 292 293 293 295 295 296 298 299 300 300 300 301 299 298 296 293 291 289 288 286 284 282 281 281 280 278 277
292 292 291 293 293 292 290 289 289 289 290 291 291 292 292 292 292 292 294 294 295 296 297 298 299 299 300 300 300 299 298 296 293 290 289 288 285 283 282 280 280 279 277
292 292 292 292 291 290 289 288 288 288 289 289 290 291 291 291 291 292 293 294 294 295 296 297 298 299 299 298 298 298 297 296 295 292 290 289 286 284 284 283 282 280 277
291 291 291 290 291 290 290 289 288 288 288 288 289 290 290 291 292 292 292 293 293 295 296 296 297 298 299 298 296 297 296 296 296 294 292 290 287 285 284 284 282 280 277
290 290 290 290 289 288 288 290 289 287 287 288 289 290 290 292 293 292 292 293 293 294 294 295 296 296 297 297 296 295 294 294 294 293 292 292 289 286 285 285 283 280 278
288 289 289 289 288 287 287 288 288 287 286 287 289 289 290 291 291 291 292 293 293 294 294 294 294 294 295 296 295 293 292 292 292 293 292 291 289 287 286 285 283 280 278
288 288 288 289 287 286 287 287 287 286 286 286 288 289 289 291 291 292 292 292 292 293 293 293 293 293 293 293 293 292 291 291 291 291 291 291 291 289 286 284 283 280 278
288 289 289 290 289 288 287 286 285 287 287 288 289 290 291 291 291 291 292 292 293 293 293 293 293 293 293 293 293 294 294 293 292 291 291 290 290 288 286 283 281 280 277
288 288 289 289 291 290 288 287 286 288 289 290 290 291 291 291 292 292 292 293 293 292 292 292 293 294 294 293 293 294 294 293 292 290 290 289 288 287 285 282 280 279 277
288 288 288 290 291 291 290 290 289 290 290 289 290 291 290 290 291 292 293 292 292 292 291 291 293 294 294 294 293 294 294 294 292 290 290 289 288 287 285 282 280 279 276
288 288 289 290 290 290 290 292 292 291 291 290 289 289 290 291 292 292 293 293 292 293 293 292 293 294 294 294 294 294 294 294 292 290 289 288 288 286 283 282 280 278 276
289 289 289 290 290 290 291 292 291 291 290 290 290 290 290 291 290 290 291 293 294 294 293 293 294 295 295 294 293 294 293 292 292 291 290 288 286 284 282 281 279 278 277
288 288 289 289 290 291 291 291 291 290 289 288 290 291 291 290 290 290 291 292 293 293 292 292 294 294 294 294 294 293 291 290 290 289 289 287 286 283 282 281 279 278 276
286 287 288 290 290 290 291 292 292 290 290 291 291 292 292 291 291 291 291 291 290 290 290 291 291 292 293 294 295 294 290 288 288 288 288 287 285 283 281 279 278 274 272
287 288 289 290 291 291 290 292 293 293 293 292 292 293 293 293 291 292 292 291 290 290 291 291 291 292 293 293 293 293 291 289 288 289 289 287 285 284 281 278 276 274 271
288 289 289 289 290 290 291 291 292 293 293 292 292 293 294 294 293 292 292 291 290 291 292 292 291 292 293 295 294 294 293 291 290 288 289 287 284 283 282 279 277 276 273
289 289 290 289 289 289 290 291 291 292 293 292 292 293 294 295 295 294 293 292 291 291 292 293 293 292 292 293 294 293 293 292 290 287 286 284 280 279 281 281 279 276 272
290 291 291 290 290 291 290 290 291 292 292 292 292 292 293 293 293 293 294 293 292 291 292 293 293 291 291 291 291 291 289 288 285 283 282 281 279 279 280 280 278 275 269
Height
5881 5879 5877 5875 5874 5872 5871 5869 5868 5866 5864 5862 5860 5858 5856 5855 5853 5851 5849 5847 5846 5844 5842 5840 5839 5837 5835 5833 5832 5830 5829 5827 5826 5826 5824 5823 5822 5821 5820 5820 5819 5819 5819
5876 5874 5872 5870 5868 5867 5866 5864 5863 5861 5859 5857 5855 5853 5851 5849 5847 5845 5843 5841 5840 5838 5836 5834 5832 5830 5828 5827 5825 5823 5822 5820 5819 5818 5817 5816 5815 5814 5813 5812 5812 5811 5811
5870 5868 5866 5865 5863 5861 5860 5858 5856 5855 5853 5851 5849 5847 5844 5842 5840 5838 5837 5835 5833 5831 5829 5827 5825 5823 5822 5820 5818 5816 5814 5813 5811 5810 5810 5808 5807 5806 5805 5804 5804 5803 5803
5864 5862 5860 5859 5857 5855 5854 5852 5850 5848 5846 5844 5842 5840 5838 5836 5833 5832 5830 5828 5826 5824 5822 5819 5817 5816 5814 5812 5810 5808 5807 5805 5804 5802 5801 5800 5799 5798 5797 5796 5796 5795 5795
5857 5855 5854 5852 5850 5848 5847 5845 5843 5841 5839 5837 5835 5833 5831 5829 5827 5825 5823 5821 5819 5817 5815 5813 5811 5809 5807 5805 5802 5800 5799 5797 5795 5794 5793 5792 5791 5790 5788 5787 5787 5786 5785
5851 5849 5847 5845 5843 5841 5840 5838 5836 5834 5832 5830 5828 5826 5824 5822 5819 5818 5816 5814 5812 5810 5807 5806 5803 5801 5799 5796 5793 5792 5790 5788 5787 5785 5784 5783 5782 5780 5779 5778 5777 5777 5776
5844 5842 5840 5838 5836 5834 5832 5830 5828 5826 5825 5822 5820 5819 5817 5815 5812 5810 5808 5806 5805 5802 5800 5798 5796 5793 5790 5788 5785 5783 5781 5779 5777 5776 5775 5773 5772 5771 5770 5769 5768 5767 5767
5836 5834 5832 5830 5828 5826 5824 5822 5821 5819 5817 5815 5813 5811 5809 5807 5805 5803 5801 5799 5797 5795 5792 5790 5788 5785 5782 5779 5776 5774 5772 5770 5767 5766 5765 5763 5762 5760 5759 5759 5758 5757 5757
5828 5826 5824 5822 5820 5818 5816 5814 5812 5811 5809 5807 5805 5803 5801 5799 5797 5795 5793 5791 5789 5787 5784 5782 5779 5776 5773 5770 5768 5766 5763 5760 5758 5756 5755 5753 5752 5751 5749 5748 5748 5747 5747
5819 5818 5816 5814 5812 5810 5808 5806 5804 5802 5800 5798 5797 5795 5793 5791 5789 5787 5785 5783 5781 5779 5776 5773 5771 5768 5765 5762 5759 5757 5754 5752 5749 5748 5746 5744 5742 5741 5740 5738 5738 5737 5737
5811 5809 5807 5805 5803 5801 5799 5797 5795 5793 5791 5789 5788 5786 5784 5782 5781 5778 5776 5774 5772 5770 5767 5765 5762 5759 5756 5753 5750 5748 5745 5743 5741 5739 5737 5735 5733 5732 5730 5729 5727 5726 5726
5802 5800 5798 5796 5794 5792 5790 5788 5786 5784 5782 5780 5778 5776 5775 5773 5771 5769 5767 5764 5762 5760 5758 5755 5753 5750 5747 5744 5742 5739 5737 5734 5732 5730 5728 5726 5724 5722 5720 5719 5717 5716 5716
5793 5791 5789 5787 5785 5782 5780 5778 5776 5774 5772 5770 5768 5767 5765 5763 5761 5759 5757 5755 5752 5750 5748 5745 5743 5740 5738 5735 5732 5730 5727 5725 5723 5721 5719 5716 5714 5712 5710 5709 5708 5707 5706
5783 5781 5779 5777 5775 5773 5771 5769 5767 5764 5762 5760 5758 5757 5755 5753 5751 5749 5747 5745 5743 5740 5738 5735 5733 5731 5728 5726 5723 5720 5718 5716 5714 5711 5709 5707 5704 5702 5701 5700 5698 5697 5697
5774 5772 5770 5768 5766 5763 5761 5759 5757 5755 5752 5750 5748 5747 5745 5743 5741 5739 5736 5734 5732 5730 5728 5725 5723 5721 5719 5716 5714 5711 5709 5706 5704 5702 5699 5697 5695 5693 5692 5690 5689 5688 5687
5764 5762 5760 5758 5755 5753 5751 5749 5747 5745 5743 5740 5738 5736 5734 5733 5730 5728 5726 5724 5722 5720 5717 5715 5713 5711 5709 5706 5704 5701 5699 5696 5694 5692 5690 5687 5685 5684 5682 5681 5680 5679 5678
5754 5752 5750 5748 5746 5743 5741 5739 5738 5736 5733 5731 5729 5726 5724 5722 5720 5718 5716 5714 5712 5710 5707 5705 5703 5701 5699 5697 5694 5692 5690 5687 5684 5682 5680 5678 5676 5675 5673 5672 5671 5670 5670
5745 5742 5741 5738 5736 5734 5731 5729 5727 5726 5724 5722 5719 5717 5715 5713 5711 5709 5707 5704 5702 5700 5697 5696 5693 5691 5689 5687 5685 5682 5680 5677 5675 5673 5671 5669 5667 5666 5664 5663 5662 5662 5662
5735 5733 5731 5729 5727 5725 5723 5720 5718 5716 5714 5712 5710 5708 5706 5704 5702 5700 5697 5695 5692 5690 5687 5686 5684 5682 5680 5678 5675 5673 5671 5668 5666 5664 5662 5661 5659 5657 5656 5655 5654 5654 5653
5725 5723 5722 5720 5718 5716 5713 5711 5709 5707 5704 5702 5701 5699 5697 5695 5692 5690 5688 5685 5683 5680 5678 5676 5674 5672 5670 5668 5666 5664 5662 5660 5658 5655 5654 5652 5650 5649 5647 5646 5645 5645 5645
5716 5714 5712 5710 5708 5706 5704 5702 5699 5697 5695 5693 5691 5689 5687 5685 5682 5680 5678 5676 5674 5672 5669 5667 5665 5663 5661 5660 5657 5655 5653 5651 5649 5647 5645 5643 5642 5640 5639 5638 5638 5638 5637
5707 5705 5703 5701 5699 5697 5695 5692 5690 5688 5685 5683 5681 5679 5678 5675 5673 5671 5669 5667 5665 5662 5660 5658 5656 5654 5652 5650 5648 5645 5643 5642 5640 5638 5637 5635 5634 5632 5631 5631 5630 5631 5630
5697 5696 5694 5692 5690 5688 5685 5683 5681 5679 5676 5674 5672 5670 5668 5666 5664 5661 5659 5657 5655 5653 5651 5649 5647 5645 5643 5641 5638 5636 5634 5633 5632 5630 5629 5628 5626 5625 5624 5624 5624 5624 5624
5688 5687 5685 5683 5681 5678 5676 5674 5672 5670 5667 5665 5663 5661 5659 5656 5654 5652 5650 5648 5646 5644 5642 5640 5638 5636 5634 5632 5630 5628 5626 5625 5623 5622 5621 5620 5620 5619 5618 5618 5618 5618 5619
5680 5678 5675 5673 5671 5669 5667 5665 5662 5660 5658 5655 5653 5651 5649 5647 5645 5643 5641 5639 5637 5634 5633 5631 5629 5627 5625 5624 5622 5620 5619 5617 5616 5615 5614 5614 5613 5613 5613 5612 5612 5612 5613
5671 5668 5666 5663 5661 5659 5657 5655 5653 5650 5648 5646 5644 5642 5640 5638 5636 5634 5632 5630 5628 5626 5624 5622 5620 5619 5617 5616 5614 5612 5611 5610 5609 5608 5608 5608 5607 5607 5607 5607 5607 5607 5607